紫金山彗星

C/2021 S4 ( Tsuchinshan )

English version
Home page
Updated on February 10, 2024

---------------------------------------------------------------------

・ プロフィール

発見日 2021年9月29日
発見光度 20.5等
発見者 Hai-bin Zhao (XuYi station, Purple Mountain Observatory)

・ 写真集

・ 軌道要素

Epoch 2023 Sept. 13.0 TT = JDT 2460200.5
T 2024 Jan. 2.19377 TT                                  Rudenko
q   6.6894163            (2000.0)            P               Q
z  +0.0060706      Peri.   72.85696     +0.20617129     -0.97809356
 +/-0.0000024      Node     5.49212     +0.74411541     +0.13763799
e   0.9593913      Incl.   17.47912     +0.63544131     +0.15616905
>From 603 observations 2021 Sept. 8-2023 Dec. 12, mean residual 0".4.

・ 光度変化

        m1 = -3.5 + 5 logΔ + 20.0 log r

---------------------------------------------------------------------

軌道要素はM.P.E.C. 2023-X256に掲載されたものです。
光度グラフはComet for Windowsで作成したものです。

---------------------------------------------------------------------

Copyright(C) Seiichi Yoshida (comet@aerith.net). All rights reserved.